Location: Arboyeti
(42.1122°N, 44.6017°E)
Time: 05:13:07
(UTC+00:00)

Cosmos 1821 Rocket - Pass Details

Date: 19 April 2021
Orbit: 946 x 1004 km, 82.9° (Epoch: 09 May)

Event Time Altitude Azimuth Distance (km) Brightness Sun altitude
Rises 23:05:37 0° 354° (N) 3,703 7.7 -29.2°
Reaches altitude 10° 23:08:09 10° 357° (N) 2,758 6.9 -28.9°
Maximum altitude 23:14:29 70° 81° (E) 1,060 4.2 -28.2°
Enters shadow 23:16:21 47° 147° (SSE) 1,303 4.4 -28.0°
